Regional Weather Roundup
Issued by NWS Mt. Holly, NJ

Home | Current Version | Previous Version | Text Only | Print | Product List | Glossary On
Versions: 1 2 3 4 5 6 7 8 9 10 11 12 13 14 15 16 17 18 19 20 21 22 23 24 25 26 27 28 29 30 31 32 33 34 35 36 37 38 39 40 41 42 43 44 45 46 47 48 49 50
000
ASUS41 KPHI 031511
RWRPHI

REGIONAL WEATHER ROUNDUP
NATIONAL WEATHER SERVICE MOUNT HOLLY NJ
1100 AM EDT SUN MAY 03 2015

NOTE:  "FAIR" INDICATES FEW OR NO CLOUDS BELOW 12,000 FEET WITH NO
SIGNIFICANT WEATHER AND/OR OBSTRUCTIONS TO VISIBILITY.

 * = STATION DOES NOT REPORT PRECIPITATION (E.G. RAIN, SNOW, ETC.)
        OR FOG.

NJZ015>026-031600-
SOUTHERN NEW JERSEY

CITY           SKY/WX    TMP DP  RH WIND       PRES   REMARKS
POMONA         MOSUNNY   67  48  50 CALM      30.11R
RIO GRANDE*    PTSUNNY   64  48  55 W7          N/A
MILLVILLE      SUNNY     67  50  54 N3        30.11R
WRIGHTSTOWN    SUNNY     68  48  48 NW1       30.09R
MOUNT HOLLY    SUNNY     67  47  48 CALM      30.11R
TRENTON        SUNNY     69  45  41 CALM      30.10R

$$
NJZ001>014-031600-
NORTHERN NEW JERSEY

CITY           SKY/WX    TMP DP  RH WIND       PRES   REMARKS
SUSSEX         SUNNY     71  43  36 CALM      30.09S
ANDOVER*         N/A     70  39  32 VRB3      30.10R
MORRISTOWN     MOSUNNY   72  43  35 CALM      30.09R
NEWARK         PTSUNNY   66  42  41 VRB3      30.09S
TETERBORO      SUNNY     69  42  37 CALM      30.08R
CALDWELL       SUNNY     70  40  33 CALM      30.09S
SOMERVILLE     SUNNY     71  44  37 CALM      30.07S
ALLAIRE*       SUNNY     66  45  45 CALM      30.11R
TOMS RIVER*    SUNNY     68  45  42 CALM      30.11S

$$
PAZ043-044-047-054-055-060>062-066>071-031600-
EASTERN PENNSYLVANIA

CITY           SKY/WX    TMP DP  RH WIND       PRES   REMARKS
PHILADELPHIA   MOSUNNY   69  45  41 CALM      30.11S
NORTH PHILA    SUNNY     69  45  41 CALM      30.12S
BLUE BELL      SUNNY     70  48  46 CALM      30.10S
DOYLESTOWN     SUNNY     71 N/A N/A MISG      30.10R
QUAKERTOWN*    SUNNY     72  39  30 CALM      30.11S
POTTSTOWN      SUNNY     70  47  43 NE3       30.12R
LANCASTER      SUNNY     70  47  43 W5        30.11S
COATESVILLE    SUNNY     72  41  33 NE3       30.12S
READING        SUNNY     71  45  39 CALM      30.11R
ALLENTOWN      SUNNY     71  40  32 CALM      30.10S
MOUNT POCONO   SUNNY     67  31  26 CALM      30.12R
HAZLETON       SUNNY     66  36  32 N3        30.16R
WILKES BARRE   SUNNY     70  36  28 W6        30.11R

$$
DEZALL-MDZ008-012-015-019-020-031600-
DELAWARE AND EASTERN MARYLAND

CITY           SKY/WX    TMP DP  RH WIND       PRES   REMARKS
WILMINGTON     SUNNY     68  50  52 SE3       30.12R
DOVER          SUNNY     66  55  69 NW5       30.09R
GEORGETOWN     SUNNY     70  49  47 VRB7      30.11R
EASTON         SUNNY     72  54  53 N6        30.15
PATUXENT       MOSUNNY   71  45  39 NW8       30.12S
OCEAN CITY     SUNNY     62  53  72 SE7       30.11R
WALLOPS ISLAND SUNNY     72  50  45 NW10      30.12R
CAMBRIDGE      SUNNY     72  46  40 N6        30.11S
SALISBURY      SUNNY     72  47  40 W8        30.11R

$$
PAZ001-021-NYZ056-072-MDZ011-DCZ001-031600-
OTHER NEARBY LOCATIONS

CITY           SKY/WX    TMP DP  RH WIND       PRES   REMARKS
HARRISBURG     MOSUNNY   72  40  31 NW6       30.11S
STATE COLLEGE  SUNNY     70  39  32 CALM      30.12F
WILLIAMSPORT   SUNNY     68  36  30 SW5       30.11S
BINGHAMTON     SUNNY     66  39  37 SW6       30.10S
NEW YORK CITY  SUNNY     69  40  34 CALM      30.12R
BALTIMORE      MOSUNNY   73  39  29 CALM      30.11R
WASHINGTON DC  MOSUNNY   77  44  30 N6        30.14R

$$


USA.gov is the U.S. government's official web portal to all federal, state and local government web resources and services.